Temperature
8 7 7 7 7 7 7 8 8 10 10 11 12 11 10 9 7 6 5 3 3 3 3 3 3 3 3 4 4 4 4 4 4 4 4 4 4 4 4 4 4 4 4 4
7 7 7 7 7 7 7 8 8 9 9 11 11 10 9 8 7 6 4 3 2 2 2 2 2 2 2 3 3 3 3 3 3 3 3 2 3 3 2 2 2 2 2 1
8 7 7 7 8 8 8 8 8 8 10 11 10 10 9 8 6 5 3 2 2 1 1 1 1 1 2 2 2 2 2 2 2 2 1 1 1 1 1 0 0 0 0 -0
7 7 6 10 9 9 8 9 9 9 10 10 10 8 7 6 5 4 3 2 1 1 1 1 1 1 1 1 1 1 1 1 1 1 0 0 0 0 -0 -1 -1 -1 -1 -1
7 7 8 9 9 8 8 9 9 9 9 9 8 7 6 4 4 3 2 2 1 1 0 0 0 0 0 0 0 0 0 -0 -0 -0 -0 -0 -0 -1 -1 -1 -1 -1 -1 -1
7 7 8 10 9 8 9 9 10 9 9 9 7 9 9 4 4 3 2 1 1 0 0 -0 -0 -0 -0 -0 -0 -0 -1 -1 -1 -1 -1 -1 -1 -1 -1 -1 -1 -1 -2 -2
7 7 9 10 8 8 9 10 9 9 9 8 8 8 6 4 3 2 2 1 1 0 -0 -0 -0 -1 -1 -1 -1 -1 -1 -1 -1 -1 -1 -1 -1 -1 -1 -1 -1 -2 -2 -2
7 7 8 9 8 9 10 8 8 8 7 7 6 5 5 4 3 2 2 1 1 0 -0 -0 -1 -1 -1 -1 -1 -1 -1 -1 -1 -1 -1 -1 -1 -1 -1 -2 -2 -2 -3 -3
9 9 9 8 8 8 8 8 7 7 7 6 5 4 4 3 3 2 2 1 1 0 -0 -0 -1 -1 -1 -1 -1 -1 -1 -1 -1 -1 -1 -1 -1 -1 -2 -2 -2 -3 -4 -4
8 9 8 8 8 7 7 7 7 7 7 6 6 5 4 3 3 2 2 1 1 0 0 -0 -0 -1 -0 -0 -1 -1 -1 -1 -1 -1 -1 -1 -2 -2 -2 -3 -3 -4 -4 -5
8 9 8 8 7 7 7 7 7 7 6 6 6 5 4 4 3 2 2 2 1 1 0 0 0 -0 -0 -0 -1 -1 -1 -1 -1 -1 -1 -2 -2 -2 -3 -3 -3 -4 -5 -5
9 9 8 8 7 7 7 7 6 6 6 6 5 5 4 4 3 3 2 2 1 1 1 0 0 -0 -0 -0 -1 -1 -1 -1 -1 -1 -2 -2 -2 -3 -3 -3 -4 -4 -5 -5
7 6 6 6 6 6 6 6 6 6 5 5 5 4 4 4 3 3 2 2 2 1 1 1 0 0 -0 -0 -0 -1 -1 -1 -1 -1 -2 -2 -3 -3 -4 -4 -4 -5 -5 -6
5 5 5 5 5 5 5 5 5 5 5 4 4 4 4 3 3 3 2 2 2 1 1 1 1 0 0 -0 -0 -1 -1 -1 -1 -2 -2 -3 -3 -3 -4 -4 -5 -5 -5 -6
5 5 5 5 5 5 4 4 4 4 4 4 4 3 3 3 3 3 2 2 1 1 1 1 1 0 0 -0 -0 -1 -1 -1 -1 -2 -2 -3 -3 -4 -4 -4 -5 -5 -6 -6
4 4 4 4 4 3 3 4 4 4 3 3 3 3 3 3 2 2 2 2 1 1 1 1 1 0 0 -0 -0 -1 -1 -1 -2 -2 -2 -3 -3 -4 -4 -5 -5 -6 -6 -6
3 3 2 2 3 3 3 3 3 3 3 3 3 3 2 2 2 2 2 1 1 1 1 1 1 0 0 -0 -0 -1 -1 -1 -2 -2 -3 -3 -4 -4 -4 -5 -5 -6 -6 -7
2 2 2 1 2 2 2 2 2 3 3 3 2 2 2 2 2 2 1 1 1 0 1 0 0 0 -0 -0 -1 -1 -1 -1 -2 -2 -3 -3 -4 -4 -5 -5 -6 -6 -6 -7
1 1 1 1 1 1 2 2 2 2 2 2 2 2 2 2 1 1 1 1 1 1 1 0 0 -0 -0 -1 -1 -1 -1 -2 -2 -2 -3 -3 -4 -4 -5 -5 -6 -6 -6 -7
0 1 1 1 1 1 2 2 2 2 2 2 2 1 1 1 1 1 1 1 1 1 1 0 -0 -0 -0 -1 -1 -1 -2 -2 -2 -2 -3 -3 -4 -4 -5 -5 -6 -6 -7 -7
0 1 1 1 1 1 1 1 1 2 2 1 1 1 1 1 1 0 0 0 1 0 -0 -0 -0 -0 -1 -1 -1 -1 -2 -2 -2 -3 -3 -3 -4 -4 -5 -5 -6 -6 -7 -7
0 1 1 1 1 1 1 1 1 1 1 1 1 0 0 0 0 0 0 1 0 -0 -0 -0 -0 -1 -1 -1 -1 -2 -2 -2 -2 -3 -3 -4 -4 -4 -5 -6 -6 -6 -7 -7
0 0 0 0 0 0 0 -0 -0 0 -0 -0 -0 -0 -0 -0 -0 0 0 0 0 -0 -0 -0 -1 -1 -1 -1 -1 -2 -2 -2 -3 -3 -3 -4 -4 -5 -5 -6 -6 -6 -7 -7
0 0 -0 -0 -0 -0 -0 -0 -1 -1 -1 -1 -1 -1 -1 -1 -0 -0 -0 -0 -0 -1 -0 -1 -1 -1 -2 -2 -2 -2 -2 -3 -3 -3 -3 -4 -4 -5 -5 -6 -6 -6 -7 -7
-0 -1 -1 -1 -1 -1 -1 -1 -1 -1 -1 -1 -1 -1 -1 -1 -1 -1 -1 -1 -1 -1 -1 -1 -1 -2 -2 -2 -2 -2 -3 -3 -3 -3 -4 -4 -4 -5 -5 -6 -6 -6 -7 -7
-1 -1 -1 -1 -1 -2 -2 -2 -2 -2 -2 -1 -1 -2 -2 -2 -2 -2 -2 -1 -1 -2 -1 -2 -2 -2 -2 -2 -3 -3 -3 -3 -3 -4 -4 -4 -5 -5 -5 -6 -6 -6 -7 -7
-1 -2 -2 -2 -2 -2 -2 -2 -2 -2 -2 -2 -2 -2 -2 -2 -2 -2 -2 -2 -2 -2 -2 -2 -3 -3 -3 -3 -3 -3 -3 -4 -4 -4 -4 -4 -5 -5 -5 -6 -6 -7 -7 -7
Wind_Speed
1 2 4 5 9 13 12 9 7 5 6 8 7 7 7 5 4 3 2 3 4 4 5 6 6 7 8 8 8 8 9 10 10 10 11 11 12 12 12 12 12 12 12 12
1 2 4 7 10 13 14 14 14 12 12 10 8 5 6 6 4 3 1 1 2 3 4 5 6 6 7 7 8 8 10 10 9 10 11 11 12 12 13 13 13 13 13 13
2 1 3 8 12 16 11 11 11 13 10 8 8 8 7 5 3 2 1 1 1 2 3 4 5 5 6 7 7 8 9 9 9 10 11 11 11 12 12 12 12 13 13 13
1 2 6 1 2 7 13 13 14 12 11 10 9 7 5 2 2 2 2 2 2 1 2 3 4 5 6 7 7 8 9 9 9 9 10 10 11 11 11 10 10 10 11 11
2 3 6 4 4 6 7 6 11 15 14 11 5 4 3 3 3 3 3 3 2 2 3 3 4 5 6 7 7 8 8 8 8 8 9 9 10 10 9 9 10 9 9 10
3 4 4 0 2 5 4 3 3 7 8 6 3 4 1 6 5 5 4 4 3 3 4 4 4 4 6 7 7 7 7 7 8 8 9 9 9 9 8 8 9 9 9 9
6 5 6 3 3 6 4 2 2 2 4 4 4 3 3 7 6 5 5 5 4 4 4 4 4 5 6 7 7 6 6 7 8 8 8 8 8 8 8 8 8 8 8 7
6 7 6 3 6 5 1 1 1 3 3 4 3 2 5 6 7 7 6 6 5 5 4 4 4 6 7 6 5 6 7 7 7 7 7 7 8 7 7 7 7 6 6 6
7 5 0 3 4 2 2 3 3 3 3 3 4 5 7 7 8 8 8 7 6 6 6 4 4 5 7 5 6 7 7 7 7 7 7 6 6 6 5 5 4 4 3 3
6 7 7 6 6 5 4 5 4 4 3 4 5 6 8 8 8 9 8 8 7 8 7 6 5 5 6 6 6 7 7 7 6 6 6 6 5 4 4 4 3 3 2 2
7 6 5 4 3 2 2 2 2 2 3 4 5 7 8 8 9 9 9 8 8 8 8 7 7 6 6 7 7 7 7 6 6 5 5 5 5 4 4 4 3 2 2 1
6 4 4 2 1 1 1 2 2 2 3 4 5 7 8 8 9 10 10 9 9 9 8 8 8 7 6 6 7 7 6 6 4 4 4 4 4 4 5 4 4 3 2 2
3 1 2 2 1 0 2 3 3 4 4 4 5 6 8 8 9 10 10 11 11 10 9 9 8 8 7 6 6 6 6 6 4 4 4 3 3 2 2 2 3 3 3 3
2 1 3 2 1 3 3 3 2 3 3 4 5 6 7 8 9 11 11 11 10 10 9 9 9 8 7 7 7 6 6 6 5 4 4 3 2 2 1 1 1 1 1 3
2 1 2 2 3 2 2 2 3 3 3 4 5 6 8 9 10 10 10 10 10 10 9 9 9 9 8 8 7 7 6 5 4 4 4 3 2 2 1 1 1 2 2 2
2 1 2 3 3 3 3 3 4 5 5 5 6 7 8 8 8 8 9 11 11 12 11 10 10 9 9 8 8 6 5 7 6 4 4 3 3 2 2 2 2 3 3 3
2 2 2 3 4 5 5 5 6 6 6 6 7 6 7 7 8 9 9 10 10 9 10 10 10 9 9 9 8 6 6 7 8 5 4 4 3 3 3 3 3 3 4 4
2 3 4 5 6 7 7 6 6 6 6 6 6 7 9 10 10 10 9 9 8 8 8 9 9 9 9 9 8 6 6 6 6 5 4 4 4 3 3 3 4 4 4 4
1 2 4 5 6 6 7 6 6 5 4 5 6 8 8 8 8 8 9 10 11 10 9 9 12 11 10 10 9 6 7 7 6 5 4 5 4 4 4 4 4 4 4 4
1 2 3 4 4 4 5 5 4 3 3 4 5 6 7 7 7 8 10 10 9 7 8 11 11 10 10 10 11 7 7 7 6 5 5 5 4 4 4 4 4 4 5 5
2 3 4 4 4 4 4 3 2 2 2 4 5 6 6 6 7 8 8 8 7 7 9 13 10 9 9 10 12 7 7 7 7 6 5 5 5 4 4 4 5 5 5 5
2 3 4 4 4 4 4 3 2 1 1 2 3 3 4 5 7 7 8 6 6 10 9 9 8 11 12 12 8 8 8 7 7 6 5 5 5 5 5 5 5 5 5 5
1 2 3 3 4 3 4 3 3 2 1 1 2 3 4 5 5 6 6 5 6 11 9 8 11 15 17 11 8 8 8 8 7 6 6 5 5 5 5 5 5 5 5 5
1 2 3 3 3 3 3 4 4 3 2 2 2 3 3 3 4 5 4 6 9 11 8 10 15 17 17 9 8 8 8 8 7 6 6 5 5 5 5 5 5 5 6 7
1 1 2 2 3 2 3 4 3 3 3 2 2 2 2 3 3 4 4 5 9 10 7 11 16 17 13 8 9 9 8 8 7 6 6 6 5 5 5 5 5 5 6 6
1 1 2 2 2 2 2 3 3 3 3 3 3 2 2 2 3 3 4 5 7 9 7 7 9 13 10 9 9 9 8 7 8 7 6 6 6 6 5 5 6 6 6 6
1 1 2 2 1 2 2 3 3 3 3 4 4 4 3 3 3 3 4 4 5 6 6 6 7 8 9 9 8 8 7 7 6 6 6 6 5 5 5 6 5 5 5 6
Wind_Direction
119 133 172 204 202 199 208 216 224 240 248 257 272 288 299 303 309 317 347 13 20 17 16 17 18 21 23 26 28 35 44 47 46 48 53 56 59 61 63 66 70 74 79 81
195 201 226 241 227 216 221 229 239 257 272 273 281 276 284 292 296 296 319 19 29 26 24 23 25 27 31 35 38 46 53 53 53 56 59 61 63 66 68 69 71 74 76 77
216 204 259 254 231 214 212 214 222 236 246 267 280 287 296 293 274 254 207 104 55 38 37 35 35 37 43 45 50 57 61 60 60 64 66 67 68 70 71 72 74 77 78 80
220 221 242 234 126 206 218 229 225 239 254 267 283 298 299 270 213 179 162 147 119 86 71 60 58 59 61 62 64 67 67 66 67 69 71 71 72 72 73 74 75 75 77 82
212 252 274 272 207 186 198 238 227 233 252 267 286 284 234 161 154 150 148 138 126 112 98 84 75 75 77 74 72 72 69 67 70 75 79 77 76 74 75 78 76 75 75 77
208 246 252 105 126 172 190 224 182 209 241 260 243 271 202 150 151 145 140 137 132 124 109 97 89 92 90 81 77 73 71 72 76 79 83 82 80 79 78 80 81 80 76 74
224 246 269 255 162 162 210 152 135 217 254 246 236 280 120 147 152 149 145 141 136 128 116 106 108 106 95 86 80 81 84 84 82 81 84 86 85 83 86 88 88 85 83 77
208 226 247 149 162 199 273 53 244 262 262 247 230 159 154 163 160 159 156 150 145 135 123 115 116 115 106 96 97 96 92 86 83 83 86 90 91 89 90 94 94 91 89 81
214 230 338 174 208 253 287 265 266 261 252 226 207 195 180 176 171 169 165 157 152 145 135 125 123 126 120 118 119 110 101 94 91 90 87 91 95 97 94 90 91 90 87 82
246 254 254 251 253 258 256 263 272 263 242 215 214 196 185 180 176 174 170 164 159 157 151 141 133 128 127 132 131 122 115 109 106 101 96 92 89 88 90 89 92 91 84 77
241 257 267 251 226 245 273 274 270 255 229 222 205 195 189 184 181 176 171 168 168 168 159 151 145 141 142 145 143 134 126 120 114 107 106 99 90 80 82 77 60 65 66 39
228 219 220 205 119 327 281 268 263 251 236 217 204 197 189 187 182 176 173 171 172 171 165 159 157 153 155 158 156 146 139 136 130 126 121 118 115 104 74 70 77 66 44 350
238 197 240 270 247 15 299 285 268 246 235 225 209 196 189 185 180 177 176 178 180 177 172 167 165 163 164 164 164 160 152 149 146 146 144 139 137 138 133 101 85 63 33 2
184 214 235 229 257 309 298 286 266 248 235 221 203 190 186 183 180 182 184 183 179 175 173 172 171 170 168 167 165 161 155 154 157 156 154 155 157 157 165 204 248 277 349 336
164 215 259 295 301 302 298 265 248 243 229 213 200 193 189 189 190 189 183 176 174 176 178 178 178 176 171 170 168 165 163 163 162 159 160 163 166 174 190 227 275 292 297 299
196 258 261 266 277 284 280 266 259 253 236 221 212 205 200 197 192 184 178 176 179 186 185 185 187 179 174 173 170 169 172 169 166 166 168 174 183 197 217 245 268 281 290 303
192 227 252 271 281 285 278 269 265 260 244 228 219 205 192 185 183 184 184 186 191 191 188 188 186 175 176 177 176 174 171 172 174 175 183 190 199 214 231 251 267 279 286 293
227 256 268 276 282 285 284 277 268 259 244 230 208 192 189 190 193 191 186 182 183 189 194 190 180 174 178 181 180 175 174 175 181 187 191 198 208 220 236 252 264 274 284 289
234 273 286 286 283 278 276 276 270 261 241 209 195 198 200 201 198 188 180 183 191 199 198 187 180 178 182 185 179 178 178 179 184 190 196 203 210 224 237 249 260 270 279 285
4 336 323 315 309 296 288 285 277 256 222 196 195 196 200 200 191 185 188 200 207 201 177 177 180 185 186 185 181 182 183 186 189 192 197 208 218 229 238 249 259 268 274 278
9 352 344 338 333 331 327 316 292 254 211 192 195 201 204 198 190 187 194 211 208 184 177 181 183 186 185 184 184 186 187 189 193 197 202 210 220 230 240 248 256 262 269 275
357 350 347 347 349 351 352 353 351 334 197 200 204 199 195 196 196 202 213 219 193 184 183 187 190 190 187 184 185 188 190 193 195 198 204 211 219 229 238 247 254 261 265 270
354 348 349 352 348 345 357 9 6 356 310 243 224 215 212 210 202 206 221 214 191 192 191 195 195 191 189 186 188 191 193 195 198 201 206 211 218 227 237 246 252 259 265 270
358 355 352 351 353 6 6 358 352 341 320 288 256 238 226 220 222 223 232 204 200 200 201 201 197 196 191 190 191 194 197 199 201 203 206 210 217 225 234 243 251 258 263 269
334 338 348 356 2 354 341 335 335 337 336 322 306 278 246 233 233 231 221 214 209 206 206 205 202 199 194 193 195 198 200 202 201 200 203 208 216 224 233 240 247 256 262 266
280 312 319 318 315 321 325 327 323 320 318 312 309 301 289 274 258 240 225 219 216 209 203 201 201 201 197 197 199 200 201 203 207 209 208 211 219 226 233 239 249 253 260 265
258 282 298 309 317 318 314 307 302 303 303 299 299 292 286 279 267 248 235 223 217 211 204 203 203 200 197 198 199 200 200 200 201 204 206 212 218 226 232 239 247 253 260 264
Height
1484 1485 1486 1486 1487 1490 1491 1487 1486 1480 1480 1476 1477 1479 1479 1480 1479 1479 1478 1477 1475 1474 1472 1470 1468 1466 1464 1461 1459 1457 1455 1453 1451 1449 1448 1446 1445 1444 1443 1442 1442 1441 1441 1442
1485 1486 1486 1485 1483 1484 1485 1484 1483 1482 1479 1474 1475 1477 1477 1476 1476 1476 1475 1474 1473 1471 1470 1469 1467 1465 1463 1461 1459 1457 1455 1453 1452 1450 1449 1447 1446 1445 1445 1444 1444 1444 1444 1444
1481 1485 1484 1478 1473 1476 1478 1477 1478 1478 1474 1472 1473 1473 1473 1473 1473 1473 1472 1472 1471 1470 1469 1468 1466 1465 1463 1461 1459 1458 1456 1455 1453 1452 1451 1450 1449 1448 1448 1448 1448 1448 1448 1448
1481 1484 1483 1468 1469 1470 1471 1471 1473 1471 1470 1470 1471 1471 1470 1470 1470 1470 1470 1469 1469 1468 1467 1467 1465 1464 1463 1461 1460 1459 1457 1456 1455 1454 1453 1453 1452 1452 1452 1452 1452 1452 1452 1453
1481 1478 1470 1466 1467 1469 1470 1467 1466 1468 1468 1468 1469 1468 1467 1467 1467 1468 1467 1467 1467 1467 1466 1466 1465 1464 1463 1462 1461 1460 1460 1459 1458 1457 1457 1456 1456 1456 1456 1456 1456 1456 1456 1457
1479 1478 1469 1463 1465 1466 1468 1463 1463 1464 1465 1466 1467 1464 1464 1465 1465 1465 1465 1465 1465 1465 1465 1465 1465 1464 1464 1463 1463 1462 1462 1461 1461 1460 1460 1460 1460 1460 1460 1460 1460 1460 1460 1460
1476 1474 1463 1462 1464 1466 1467 1462 1463 1463 1463 1464 1464 1463 1464 1463 1463 1464 1464 1464 1464 1464 1465 1465 1465 1465 1465 1464 1464 1464 1464 1464 1464 1464 1463 1463 1463 1463 1463 1463 1463 1463 1462 1462
1471 1471 1465 1461 1463 1463 1461 1461 1461 1461 1461 1461 1461 1460 1460 1461 1461 1462 1462 1463 1463 1464 1464 1465 1465 1465 1466 1466 1466 1466 1467 1467 1466 1466 1466 1466 1466 1466 1466 1465 1465 1464 1464 1463
1463 1461 1459 1460 1460 1460 1460 1460 1459 1459 1459 1458 1458 1458 1458 1459 1460 1460 1461 1462 1463 1463 1464 1465 1466 1466 1467 1468 1468 1468 1469 1469 1469 1469 1469 1468 1468 1468 1467 1467 1466 1466 1465 1464
1460 1457 1457 1458 1458 1458 1458 1457 1457 1456 1456 1455 1455 1455 1456 1457 1458 1459 1460 1461 1462 1463 1464 1465 1466 1467 1468 1469 1469 1470 1470 1471 1471 1471 1470 1470 1470 1469 1468 1468 1467 1466 1465 1464
1456 1455 1455 1454 1455 1455 1455 1454 1454 1453 1453 1453 1453 1452 1453 1454 1455 1457 1458 1459 1461 1462 1464 1465 1466 1468 1469 1469 1470 1471 1471 1472 1472 1472 1471 1471 1470 1469 1469 1468 1467 1466 1465 1463
1450 1451 1452 1453 1453 1452 1452 1452 1451 1451 1450 1450 1450 1450 1451 1452 1453 1454 1456 1458 1460 1461 1463 1465 1466 1468 1469 1470 1471 1472 1472 1472 1472 1472 1472 1471 1470 1469 1468 1468 1466 1465 1463 1462
1449 1449 1450 1450 1450 1450 1450 1449 1449 1448 1448 1447 1447 1448 1448 1449 1451 1452 1454 1456 1458 1460 1462 1464 1466 1467 1469 1470 1471 1471 1472 1472 1472 1472 1471 1471 1470 1469 1468 1467 1465 1464 1462 1461
1446 1447 1448 1448 1448 1447 1447 1446 1446 1445 1445 1444 1444 1445 1446 1447 1448 1450 1452 1454 1457 1459 1461 1463 1465 1466 1468 1469 1470 1471 1471 1471 1471 1471 1471 1470 1469 1468 1467 1466 1464 1462 1461 1459
1443 1444 1445 1445 1445 1444 1444 1443 1442 1442 1441 1441 1441 1442 1443 1444 1445 1447 1450 1452 1454 1456 1459 1461 1463 1465 1466 1467 1469 1469 1470 1470 1470 1470 1469 1469 1468 1467 1466 1464 1463 1461 1459 1457
1441 1441 1442 1442 1442 1441 1441 1440 1439 1438 1438 1438 1438 1439 1440 1441 1443 1445 1447 1449 1451 1453 1456 1458 1460 1463 1464 1466 1467 1468 1468 1469 1469 1468 1468 1467 1466 1465 1464 1462 1461 1459 1457 1455
1438 1438 1439 1438 1438 1437 1437 1436 1436 1435 1435 1435 1435 1436 1437 1438 1440 1441 1444 1446 1449 1451 1454 1456 1458 1460 1462 1463 1465 1466 1466 1466 1467 1466 1466 1465 1464 1463 1462 1460 1458 1457 1455 1452
1435 1435 1435 1435 1434 1434 1433 1433 1432 1432 1431 1431 1432 1432 1433 1434 1436 1438 1440 1443 1445 1447 1450 1452 1455 1457 1459 1460 1462 1463 1464 1464 1464 1464 1463 1463 1462 1461 1459 1457 1456 1454 1452 1450
1432 1432 1432 1431 1431 1430 1429 1429 1428 1428 1428 1428 1428 1429 1430 1431 1433 1435 1437 1439 1441 1443 1446 1448 1451 1453 1455 1457 1459 1460 1460 1461 1461 1461 1460 1460 1459 1458 1456 1454 1453 1451 1449 1446
1430 1429 1429 1428 1427 1426 1426 1425 1425 1424 1424 1424 1425 1426 1427 1428 1430 1431 1433 1435 1437 1440 1443 1445 1447 1449 1451 1453 1455 1456 1457 1458 1458 1458 1457 1457 1456 1454 1453 1451 1449 1447 1445 1443
1428 1427 1427 1426 1425 1424 1423 1422 1422 1421 1421 1421 1422 1422 1423 1425 1426 1428 1429 1431 1434 1436 1438 1440 1442 1445 1447 1449 1451 1452 1453 1454 1454 1454 1454 1453 1452 1451 1449 1448 1446 1444 1442 1440
1427 1426 1425 1424 1423 1422 1421 1420 1419 1419 1419 1419 1419 1420 1420 1421 1423 1424 1426 1428 1430 1432 1433 1435 1438 1440 1443 1445 1446 1448 1449 1450 1450 1450 1450 1449 1448 1447 1446 1444 1442 1440 1438 1436
1425 1425 1424 1423 1422 1420 1419 1418 1418 1417 1417 1417 1417 1417 1417 1418 1419 1420 1421 1424 1425 1427 1429 1431 1433 1436 1438 1440 1442 1443 1445 1445 1446 1446 1446 1445 1444 1443 1442 1440 1438 1436 1434 1432
1424 1423 1423 1421 1420 1419 1418 1417 1416 1416 1415 1415 1414 1414 1415 1415 1416 1417 1418 1419 1421 1422 1424 1427 1429 1431 1433 1435 1437 1438 1440 1441 1441 1442 1441 1441 1440 1439 1437 1436 1434 1432 1430 1428
1423 1422 1421 1420 1419 1418 1417 1416 1415 1414 1413 1413 1412 1412 1412 1412 1412 1413 1414 1415 1416 1418 1419 1422 1424 1426 1427 1429 1431 1433 1435 1436 1437 1437 1437 1436 1435 1434 1433 1431 1430 1428 1426 1424
1421 1420 1419 1418 1417 1416 1415 1414 1413 1412 1411 1410 1410 1409 1409 1408 1408 1409 1410 1410 1411 1413 1415 1416 1418 1420 1422 1424 1426 1428 1429 1431 1431 1432 1432 1431 1431 1430 1428 1427 1425 1423 1421 1420
1419 1418 1417 1416 1415 1414 1413 1412 1411 1409 1408 1407 1406 1406 1405 1405 1405 1405 1405 1406 1407 1408 1409 1411 1413 1414 1416 1418 1420 1422 1424 1425 1426 1427 1427 1426 1426 1425 1424 1422 1421 1419 1417 1415